sat.trackr.live / text

‹ back to catalog

STARLINK-3635

NORAD 51981 · 2022-025AB

PAYLOAD ACTIVE UNKNOWN

§ Identity

Operator
Country
US
Launch date
2022-03-09
Launch site
AFETR
Launch vehicle
Mass (kg)
RCS (m²)

Purposes: comms

External: N2YO · Heavens-Above · Gunter

§ Orbital elements

Epoch: 2026-09-19T13:50:37.444128Z

Period
93.79 min
Inclination
53.1605°
Eccentricity
0.0001383
Mean motion
15.35388561 rev/d
Perigee alt
458.8 km
Apogee alt
460.7 km
Semi-major
6,837.9 km
B*
1.4471e-6
RAAN
239.7723°
Arg perigee
87.8018°
Mean anomaly
272.3144°
Rev number
25,044

§ Raw data

STARLINK-36351 51981U 22025AB  26262.57682227 -.00000330  00000+0  14471-5 0  99902 51981  53.1605 239.7723 0001383  87.8018 272.3144 15.35388561250449

JSON: /api/v1/satellites/51981 · /tle

For live sub-satellite position, see the globe view (requires WebGL).

§ Visibility from observer

Set your observer location to see the next 7 days of passes ≥ 10°. The values pass through the URL so the page stays shareable.

No JS? Fill the form by hand. The geolocation button needs JavaScript.